Jaffrey, NH

1:37 AM EDT on September 27, 2016 (GMT -0400)
Jaffrey Airport-Silver Ranch

Weather History for KAFN - September, 2013

Change the Weather History Date:

Thursday, September 12, 2013

  Actual Average Record
Temperature  
Mean Temperature 70 °F -  
Max Temperature 77 °F 70 °F 87 °F (2005)
Min Temperature 64 °F 49 °F 33 °F (2006)
Cooling Degree Days 6    
Growing Degree Days 20 (Base 50)    
Moisture  
Dew Point 67 °F    
Average Humidity 93    
Maximum Humidity 100    
Minimum Humidity 83    
Precipitation  
Precipitation 3.58 in - - ()
Sea Level Pressure  
Sea Level Pressure 29.82 in    
Wind  
Wind Speed 4 mph (SSW)    
Max Wind Speed 10 mph    
Max Gust Speed -    
Visibility 4 miles    
Events Fog , Rain , Thunderstorm    
Averages and records for this station are not official NWS values.
T = Trace of Precipitation, MM = Missing Value Source: NWS Daily Summary

Daily Weather History Graph

Daily Weather History Graph

Search for Another Location

Airport or City:

Trip Planner

Search our weather history database for the weather conditions in past years. The results will help you decide how hot, cold, wet, or windy it might be!

Date:

Astronomy

Sep. 12, 2013 Rise Set
Actual Time 6:24 AM EDT 7:02 PM EDT
Civil Twilight 5:56 AM EDT 7:31 PM EDT
Nautical Twilight 5:22 AM EDT 8:04 PM EDT
Astronomical Twilight 4:47 AM EDT 8:39 PM EDT
Moon 1:58 PM EDT (9/12) 11:46 PM EDT (9/12)
Length of Visible Light 13h 35m
Length of Day
12h 38m
Waxing Crescent, 50% of the Moon is Illuminated
Sep 12
Waxing Crescent
Sep 12
First Quarter
Sep 19
Full
Sep 26
Last Quarter
Oct 4
New

Hourly Weather History & Observations

Time (EDT) Temp. Dew Point Humidity Pressure Visibility Wind Dir Wind Speed Gust Speed Precip Events Conditions
12:52 AM 69.1 °F 66.0 °F 90% 29.98 in 10.0 mi SSW 5.8 mph - N/A   Clear
1:52 AM 68.0 °F 66.0 °F 93% 29.96 in 10.0 mi SSW 5.8 mph - N/A   Clear
2:52 AM 68.0 °F 66.0 °F 93% 29.96 in 10.0 mi Calm Calm - N/A   Clear
3:52 AM 68.0 °F 64.9 °F 90% 29.97 in 10.0 mi SSW 5.8 mph - N/A   Clear
4:52 AM 66.9 °F 64.9 °F 93% 29.96 in 10.0 mi South 5.8 mph - N/A   Clear
5:52 AM 66.9 °F 64.9 °F 93% 29.95 in 10.0 mi Calm Calm - N/A   Clear
6:52 AM 66.9 °F 64.9 °F 93% 29.95 in 7.0 mi Calm Calm - N/A   Clear
7:52 AM 69.1 °F 66.0 °F 90% 29.95 in 9.0 mi Calm Calm - N/A   Scattered Clouds
8:01 AM 69.8 °F 66.2 °F 88% 29.95 in 8.0 mi Variable 3.5 mph - N/A   Mostly Cloudy
8:24 AM 69.8 °F 66.2 °F 88% 29.93 in 6.0 mi South 4.6 mph - N/A   Scattered Clouds
8:52 AM 70.0 °F 66.9 °F 90% 29.92 in 6.0 mi South 6.9 mph - N/A   Partly Cloudy
9:52 AM 73.9 °F 69.1 °F 85% 29.90 in 7.0 mi SSW 8.1 mph - N/A   Clear
10:04 AM 73.4 °F 69.8 °F 88% 29.91 in 6.0 mi SSW 10.4 mph - N/A   Haze
10:12 AM 73.4 °F 69.8 °F 88% 29.91 in 5.0 mi SSW 9.2 mph - N/A Thunderstorm Scattered Clouds
10:52 AM 72.0 °F 69.1 °F 91% 29.89 in 3.0 mi SW 3.5 mph - 0.01 in Rain , Thunderstorm Light Thunderstorms and Rain
11:00 AM 71.6 °F 69.8 °F 94% 29.90 in 1.8 mi South 9.2 mph - 0.04 in Rain , Thunderstorm Heavy Thunderstorms and Rain
11:05 AM 71.6 °F 69.8 °F 94% 29.89 in 1.0 mi South 5.8 mph - 0.10 in Rain , Thunderstorm Heavy Thunderstorms and Rain
11:19 AM 71.6 °F 69.8 °F 94% 29.89 in 0.5 mi SSW 5.8 mph - 0.36 in Fog , Rain , Thunderstorm Heavy Thunderstorms and Rain
11:24 AM 71.6 °F 69.8 °F 94% 29.89 in 1.0 mi SSW 8.1 mph - 0.36 in Rain , Thunderstorm Light Thunderstorms and Rain
11:26 AM 71.6 °F 69.8 °F 94% 29.89 in 2.0 mi SSW 6.9 mph - 0.36 in Rain , Thunderstorm Light Thunderstorms and Rain
11:33 AM 73.4 °F 69.8 °F 88% 29.88 in 5.0 mi South 5.8 mph - 0.36 in Thunderstorm Mostly Cloudy
11:52 AM 73.9 °F 70.0 °F 87% 29.88 in 5.0 mi SSW 5.8 mph - 0.36 in Thunderstorm Scattered Clouds
12:09 PM 73.4 °F 71.6 °F 94% 29.86 in 3.0 mi SSW 8.1 mph - 0.01 in Rain , Thunderstorm Thunderstorms and Rain
12:14 PM 73.4 °F 71.6 °F 94% 29.87 in 2.5 mi South 9.2 mph - 0.05 in Rain Light Rain
12:16 PM 73.4 °F 71.6 °F 94% 29.85 in 1.2 mi South 6.9 mph - 0.12 in Rain Heavy Rain
12:24 PM 73.4 °F 71.6 °F 94% 29.86 in 1.2 mi SSW 8.1 mph - 0.12 in Rain Light Rain
12:26 PM 73.4 °F 71.6 °F 94% 29.86 in 2.0 mi SSW 6.9 mph - 0.12 in Rain Light Rain
12:33 PM 75.2 °F 71.6 °F 89% 29.85 in 4.0 mi South 9.2 mph - 0.12 in   Mostly Cloudy
12:52 PM 77.0 °F 72.0 °F 84% 29.85 in 4.0 mi SSW 9.2 mph - 0.12 in   Haze
1:48 PM 75.2 °F 71.6 °F 89% 29.82 in 4.0 mi SSW 6.9 mph - 0.03 in Thunderstorm Scattered Clouds
1:52 PM 75.9 °F 73.0 °F 91% 29.81 in 4.0 mi South 8.1 mph - 0.03 in Thunderstorm Mostly Cloudy
2:10 PM 75.2 °F 71.6 °F 89% 29.84 in 3.0 mi WSW 8.1 mph - 0.00 in Rain , Thunderstorm Light Thunderstorms and Rain
2:31 PM 69.8 °F 66.2 °F 88% 29.84 in 3.0 mi Calm Calm - 0.05 in Rain , Thunderstorm Light Thunderstorms and Rain
2:36 PM 69.8 °F 64.4 °F 83% 29.84 in 1.8 mi Variable 4.6 mph - 0.07 in Rain , Thunderstorm Heavy Thunderstorms and Rain
2:52 PM 68.0 °F 64.9 °F 90% 29.83 in 0.8 mi West 8.1 mph - 0.25 in Rain , Thunderstorm Heavy Thunderstorms and Rain
3:19 PM 66.2 °F 64.4 °F 94% 29.79 in 1.0 mi Calm Calm - 0.60 in Rain , Thunderstorm Thunderstorms and Rain
3:22 PM 66.2 °F 64.4 °F 94% 29.81 in 1.2 mi West 5.8 mph - 0.62 in Rain , Thunderstorm Heavy Thunderstorms and Rain
3:27 PM 66.2 °F 64.4 °F 94% 29.80 in 1.0 mi Calm Calm - 0.66 in Rain , Thunderstorm Heavy Thunderstorms and Rain
3:35 PM 66.2 °F 64.4 °F 94% 29.80 in 0.5 mi Calm Calm - 0.89 in Fog , Rain , Thunderstorm Heavy Thunderstorms and Rain
3:52 PM 66.9 °F 66.0 °F 97% 29.79 in 1.2 mi ESE 3.5 mph - 1.27 in Rain , Thunderstorm Light Thunderstorms and Rain
3:56 PM 66.2 °F 66.2 °F 100% 29.80 in 3.0 mi SSE 4.6 mph - 0.01 in Rain , Thunderstorm Thunderstorms and Rain
4:08 PM 66.2 °F 66.2 °F 100% 29.78 in 1.2 mi Variable 3.5 mph - 0.09 in Rain , Thunderstorm Heavy Thunderstorms and Rain
4:10 PM 66.2 °F 66.2 °F 100% 29.78 in 0.5 mi Calm Calm - 0.16 in Fog , Rain , Thunderstorm Heavy Thunderstorms and Rain
4:22 PM 66.2 °F 66.2 °F 100% 29.76 in 1.5 mi Variable 3.5 mph - 0.28 in Rain , Thunderstorm Light Thunderstorms and Rain
4:24 PM 66.2 °F 66.2 °F 100% 29.77 in 4.0 mi Calm Calm - 0.28 in Rain , Thunderstorm Light Thunderstorms and Rain
4:32 PM 68.0 °F 66.2 °F 94% 29.77 in 10.0 mi Calm Calm - 0.28 in Thunderstorm Thunderstorm
4:42 PM 68.0 °F 66.2 °F 94% 29.77 in 10.0 mi South 3.5 mph - 0.28 in Thunderstorm Mostly Cloudy
4:52 PM 68.0 °F 66.0 °F 93% 29.78 in 10.0 mi Variable 4.6 mph - 0.28 in Thunderstorm Mostly Cloudy
5:24 PM 66.2 °F 66.2 °F 100% 29.77 in 1.8 mi ENE 5.8 mph - 0.10 in Rain , Thunderstorm Light Thunderstorms and Rain
5:26 PM 66.2 °F 66.2 °F 100% 29.77 in 1.2 mi Variable 4.6 mph - 0.13 in Rain , Thunderstorm Heavy Thunderstorms and Rain
5:31 PM 66.2 °F 66.2 °F 100% 29.78 in 0.8 mi Variable 4.6 mph - 0.20 in Rain , Thunderstorm Heavy Thunderstorms and Rain
5:39 PM 66.2 °F 64.4 °F 94% 29.78 in 0.5 mi NNE 5.8 mph - 0.35 in Fog , Rain , Thunderstorm Heavy Thunderstorms and Rain
5:44 PM 66.2 °F 66.2 °F 100% 29.78 in 1.0 mi WNW 4.6 mph - 0.38 in Rain , Thunderstorm Thunderstorms and Rain
5:46 PM 66.2 °F 64.4 °F 94% 29.77 in 1.2 mi Calm Calm - 0.38 in Rain , Thunderstorm Heavy Thunderstorms and Rain
5:52 PM 66.0 °F 64.9 °F 96% 29.77 in 2.0 mi Calm Calm - 0.41 in Rain , Thunderstorm Light Thunderstorms and Rain
6:00 PM 66.2 °F 64.4 °F 94% 29.77 in 4.0 mi Calm Calm - 0.01 in Rain , Thunderstorm Rain
6:03 PM 66.2 °F 64.4 °F 94% 29.77 in 1.5 mi Calm Calm - 0.12 in Rain , Thunderstorm Rain
6:05 PM 66.2 °F 64.4 °F 94% 29.76 in 1.0 mi Calm Calm - 0.13 in Rain Heavy Rain
6:12 PM 66.2 °F 66.2 °F 100% 29.76 in 1.5 mi Calm Calm - 0.13 in Rain Light Rain
6:14 PM 66.2 °F 64.4 °F 94% 29.76 in 4.0 mi Calm Calm - 0.13 in Rain Light Rain
6:23 PM 66.2 °F 66.2 °F 100% 29.75 in 6.0 mi Calm Calm - 0.13 in Thunderstorm Mostly Cloudy
6:33 PM 66.2 °F 66.2 °F 100% 29.75 in 4.0 mi Calm Calm - 0.13 in Thunderstorm Overcast
6:52 PM 66.9 °F 64.9 °F 93% 29.75 in 3.0 mi Variable 3.5 mph - 0.17 in Rain , Thunderstorm Heavy Rain
6:54 PM 66.2 °F 64.4 °F 94% 29.75 in 2.5 mi West 4.6 mph - 0.01 in Rain , Thunderstorm Heavy Rain
7:04 PM 66.2 °F 64.4 °F 94% 29.75 in 1.2 mi Calm Calm - 0.15 in Rain , Thunderstorm Heavy Rain
7:11 PM 66.2 °F 64.4 °F 94% 29.76 in 2.0 mi Calm Calm - 0.19 in Rain , Thunderstorm Rain
7:20 PM 66.2 °F 64.4 °F 94% 29.76 in 4.0 mi West 3.5 mph - 0.21 in Rain , Thunderstorm Rain
7:52 PM 66.0 °F 64.9 °F 96% 29.77 in 4.0 mi SSE 3.5 mph - 0.29 in Rain , Thunderstorm Thunderstorms and Rain
8:03 PM 66.2 °F 64.4 °F 94% 29.76 in 2.5 mi Calm Calm - 0.08 in Rain , Thunderstorm Heavy Rain
8:11 PM 66.2 °F 64.4 °F 94% 29.74 in 5.0 mi Calm Calm - 0.09 in Rain , Thunderstorm Light Rain
8:34 PM 66.2 °F 64.4 °F 94% 29.73 in 10.0 mi South 3.5 mph - 0.09 in   Mostly Cloudy
8:52 PM 66.0 °F 64.0 °F 93% 29.74 in 9.0 mi Calm Calm - 0.09 in   Mostly Cloudy
9:52 PM 64.9 °F 63.0 °F 93% 29.73 in 9.0 mi Calm Calm - 0.02 in Rain Light Rain
10:52 PM 64.9 °F 64.0 °F 97% 29.73 in 4.0 mi South 3.5 mph - 0.22 in Rain Rain
11:33 PM 64.4 °F 62.6 °F 94% 29.70 in 7.0 mi Calm Calm - 0.06 in Rain Light Rain
11:43 PM 64.4 °F 62.6 °F 94% 29.70 in 9.0 mi South 3.5 mph - 0.06 in Rain Light Rain
11:52 PM 64.9 °F 63.0 °F 93% 29.69 in 7.0 mi Calm Calm - 0.06 in   Mostly Cloudy
11:59 PM 64.4 °F 62.6 °F 94% 29.69 in 9.0 mi SSW 3.5 mph - N/A   Scattered Clouds